Location: Launay
(47.2429°N, 1.5727°E)
Time: 06:07:15
(UTC+00:00)

Meteor 2-4 Rocket - Pass Details

Date: 19 May 2025
Orbit: 798 x 906 km, 81.2° (Epoch: 18 June)

Event Time Altitude Azimuth Distance (km) Brightness Sun altitude
Exits shadow 22:30:54 32° 122° (ESE) 1,453 4.5 -20.4°
Maximum altitude 22:32:22 37° 90° (E) 1,327 4.5 -20.5°
Drops below altitude 10° 22:37:38 10° 26° (NNE) 2,554 6.8 -20.8°
Sets 22:40:16 0° 18° (NNE) 3,512 7.8 -21.0°
